Georgetown, DE

7:25 PM EDT on April 30, 2017 (GMT -0400)
Sussex County

Weather History for KGED - December, 2013

Change the Weather History Date:

Friday, December 20, 2013

  Actual Average Record
Temperature  
Mean Temperature 55 °F 38 °F  
Max Temperature 62 °F 47 °F 65 °F (2002)
Min Temperature 47 °F 29 °F 8 °F (1985)
Degree Days  
Heating Degree Days 10 27  
Month to date heating degree days 478 487  
Since 1 July heating degree days 1281 1271  
Cooling Degree Days 0 0  
Month to date cooling degree days 0 0  
Year to date cooling degree days 1396 1196  
Growing Degree Days 4 (Base 50)    
Moisture  
Dew Point 41 °F    
Average Humidity 59    
Maximum Humidity 77    
Minimum Humidity 41    
Precipitation  
Precipitation 0.00 in 0.10 in 0.66 in (2002)
Month to date precipitation 2.97 2.27  
Year to date precipitation 52.53 42.75  
Sea Level Pressure  
Sea Level Pressure 30.11 in    
Wind  
Wind Speed 13 mph (SW)    
Max Wind Speed 23 mph    
Max Gust Speed 32 mph    
Visibility 10 miles    
Events      
T = Trace of Precipitation, MM = Missing Value Source: NWS Daily Summary

Daily Weather History Graph

Daily Weather History Graph

Search for Another Location

Airport or City:

Trip Planner

Search our weather history database for the weather conditions in past years. The results will help you decide how hot, cold, wet, or windy it might be!

Date:

Astronomy

Dec. 20, 2013 Rise Set
Actual Time 7:15 AM EST 4:43 PM EST
Civil Twilight 6:45 AM EST 5:12 PM EST
Nautical Twilight 6:12 AM EST 5:46 PM EST
Astronomical Twilight 5:39 AM EST 6:18 PM EST
Moon 7:59 PM EST (12/20) 9:09 AM EST (12/20)
Length of Visible Light 10h 27m
Length of Day
9h 27m
Waning Gibbous, 90% of the Moon is Illuminated
Dec 20
Waning Gibbous
Dec 25
Last Quarter
Jan 1
New
Jan 7
First Quarter
Jan 15
Full

Hourly Weather History & Observations

Time (EST) Temp. Dew Point Humidity Pressure Visibility Wind Dir Wind Speed Gust Speed Precip Events Conditions
12:54 AM 50.0 °F 30.0 °F 46% 30.15 in 10.0 mi SW 10.4 mph - N/A   Clear
1:54 AM 51.1 °F 28.9 °F 43% 30.14 in 10.0 mi SW 9.2 mph - N/A   Clear
2:54 AM 48.0 °F 28.9 °F 48% 30.16 in 10.0 mi SW 5.8 mph - N/A   Clear
3:54 AM 48.9 °F 30.0 °F 48% 30.15 in 10.0 mi SW 10.4 mph - N/A   Clear
4:54 AM 48.0 °F 30.0 °F 50% 30.15 in 10.0 mi SW 10.4 mph - N/A   Clear
5:54 AM 48.0 °F 30.9 °F 52% 30.15 in 10.0 mi SSW 12.7 mph - N/A   Clear
6:54 AM 48.0 °F 32.0 °F 54% 30.15 in 10.0 mi SSW 10.4 mph - N/A   Clear
7:54 AM 48.0 °F 32.0 °F 54% 30.15 in 10.0 mi SSW 12.7 mph - N/A   Clear
8:54 AM 52.0 °F 33.1 °F 49% 30.15 in 10.0 mi SSW 15.0 mph - N/A   Clear
9:54 AM 55.0 °F 37.9 °F 53% 30.15 in 10.0 mi SW 13.8 mph - N/A   Clear
10:54 AM 57.0 °F 39.9 °F 53% 30.14 in 10.0 mi SW 17.3 mph - N/A   Clear
11:54 AM 57.9 °F 43.0 °F 58% 30.11 in 10.0 mi SW 15.0 mph 24.2 mph N/A   Clear
12:54 PM 59.0 °F 45.0 °F 60% 30.09 in 10.0 mi SW 15.0 mph 25.3 mph N/A   Clear
1:54 PM 59.0 °F 46.0 °F 62% 30.07 in 10.0 mi SW 18.4 mph 25.3 mph N/A   Clear
2:54 PM 60.1 °F 48.0 °F 64% 30.05 in 10.0 mi SW 16.1 mph 25.3 mph N/A   Clear
3:54 PM 60.1 °F 48.0 °F 64% 30.05 in 10.0 mi SSW 13.8 mph - N/A   Clear
4:54 PM 57.0 °F 48.0 °F 72% 30.07 in 10.0 mi SSW 10.4 mph - N/A   Clear
5:54 PM 57.9 °F 50.0 °F 75% 30.09 in 10.0 mi SSW 10.4 mph - N/A   Overcast
6:54 PM 57.9 °F 50.0 °F 75% 30.08 in 10.0 mi SSW 10.4 mph - N/A   Mostly Cloudy
7:54 PM 57.0 °F 50.0 °F 77% 30.08 in 10.0 mi SSW 11.5 mph - N/A   Clear
8:54 PM 59.0 °F 51.1 °F 75% 30.07 in 10.0 mi SW 15.0 mph - N/A   Clear
9:54 PM 59.0 °F 51.1 °F 75% 30.08 in 10.0 mi SW 13.8 mph - N/A   Mostly Cloudy
10:54 PM 61.0 °F 51.1 °F 70% 30.07 in 10.0 mi SW 16.1 mph 21.9 mph N/A   Overcast
11:54 PM 61.0 °F 51.1 °F 70% 30.07 in 10.0 mi SW 17.3 mph 25.3 mph N/A   Overcast